This is the latest recevied weather packets stored in our database for station/object KK4WXG. If no packets are shown the sender has not sent any weather packets the latest 10 day(s).
| Time | Temp. | Humidity | Pressure | Rain* | Wind** | Luminosity | Snow |
|---|---|---|---|---|---|---|---|
| 1777828824 | 13.89° C | 35% | 1015.6 hPa | 0 mm | - | 1037 W/m² | - |
| 1777828521 | 13.89° C | 40% | 1015.9 hPa | 0 mm | - | 1018 W/m² | - |
| 1777828218 | 13.89° C | 39% | 1015.8 hPa | 0 mm | - | 1026 W/m² | - |
| 1777827914 | 12.78° C | 40% | 1015.6 hPa | 0 mm | - | 1093 W/m² | - |
| 1777827612 | 13.33° C | 37% | 1015.7 hPa | 0 mm | - | 203 W/m² | - |
| 1777827309 | 13.33° C | 40% | 1015.9 hPa | 0 mm | - | 1064 W/m² | - |
| 1777827005 | 13.33° C | 39% | 1015.8 hPa | 0 mm | - | 1104 W/m² | - |
| 1777826702 | 13.33° C | 38% | 1015.8 hPa | 0 mm | - | 1206 W/m² | - |
| 1777826399 | 14.44° C | 43% | 1015.8 hPa | 0 mm | - | 975 W/m² | - |
| 1777826096 | 12.78° C | 47% | 1015.9 hPa | 0 mm | - | 1081 W/m² | - |
| 1777825792 | 12.22° C | 39% | 1016 hPa | 0 mm | - | 547 W/m² | - |
| 1777825490 | 12.78° C | 43% | 1016.1 hPa | 0 mm | - | 306 W/m² | - |
| 1777825187 | 12.22° C | 44% | 1016.3 hPa | 0 mm | - | 305 W/m² | - |
| 1777824884 | 11.67° C | 42% | 1016.4 hPa | 0 mm | - | 1124 W/m² | - |
| 1777824580 | 11.11° C | 43% | 1016.6 hPa | 0 mm | - | 363 W/m² | - |
| 1777824277 | 11.11° C | 43% | 1016.5 hPa | 0 mm | - | 867 W/m² | - |
| 1777823973 | 12.22° C | 45% | 1016.6 hPa | 0 mm | - | 248 W/m² | - |
| 1777823670 | 13.33° C | 40% | 1016.5 hPa | 0 mm | - | 1085 W/m² | - |
| 1777823367 | 12.78° C | 47% | 1016.4 hPa | 0 mm | - | 1039 W/m² | - |
| 1777823065 | 12.22° C | 39% | 1016.7 hPa | 0 mm | - | 1008 W/m² | - |
| 1777822763 | 12.22° C | 38% | 1016.7 hPa | 0 mm | - | 1025 W/m² | - |
| 1777822460 | 11.67° C | 40% | 1016.7 hPa | 0 mm | - | 980 W/m² | - |
| 1777822157 | 11.67° C | 40% | 1016.8 hPa | 0 mm | - | 993 W/m² | - |
| 1777821855 | 11.11° C | 45% | 1016.8 hPa | 0 mm | - | 1014 W/m² | - |
| 1777821552 | 11.11° C | 45% | 1016.8 hPa | 0 mm | - | 187 W/m² | - |
* Rain latest hour (hover to see other rain measurements)
** Current wind speed in m/s (hover to see current wind gust speed)